Погода в Поповке

Украина / Сумская область     51°14′00″N   33°06′55″E
темп.,
°C
ветер,
м/с
пор.,
м/с
влажн.,
%
обл.,
%
осадки,
мм/ч
давл.,
гПа
погр.,
м
13 июня, вс
вс1300:00+14ююз338533 0.0 100925
03:00+14ю369251 0.0 100899
06:00+14ю37955 0.1 1007170
09:00+19ю46847 1.1 1006260
12:00+22ююз796339 1.1 10061369
15:00+22ююз697519 3.0 10061195
18:00+17ююз129523 5.8 100654
21:00+14зсз3695100 7.6 1008174
14 июня, пн
пн1400:00+12сз229465 0.1 100935
03:00+11ссв229576 0.1 101040
06:00+12св24945 0.0 1011125
09:00+18в358534 0.0 1012528
12:00+23юв34671 0.1 10131068
15:00+24юв34612 0.3 10131496
18:00+23вюв237340 1.4 1014843
21:00+19всв22836 2.1 101411
15 июня, вт
вт1500:00+17в11894 0.0 101511
03:00+16в22895 0.0 101411
06:00+16ссв11890 0.0 101518
09:00+21ссв23805 0.0 1015366
12:00+24ссв33680 0.0 10131143
15:00+25ссв336018 0.2 10121707
18:00+25всв23725 0.3 1011756
21:00+20ссв2281100 1.6 101111
16 июня, ср
ср1600:00+17ссв349296 2.3 101155
03:00+16с3798100 5.0 1011179
06:00+17с41096100 0.4 1012333
09:00+20ссв468560 0.4 1013537
12:00+23с557225 0.0 1013988
15:00+24с776547 0.0 10131494
18:00+22ссв68750 0.0 1013914
21:00+18с411890 0.1 1014269
17 июня, чт
чт1700:00+17ссв614890 0.0 1015447
03:00+16св513930 0.0 1016390
06:00+15св614900 0.0 1017444
09:00+19св712770 0.0 1018697
12:00+21св810686 0.0 10191165
15:00+22св8106611 0.0 10191414
18:00+21св710740 0.0 10191202
21:00+17св5128017 0.0 1020439